Time,TemperatureF,DewpointF,PressureIn,WindDirection,WindDirectionDegrees,WindSpeedMPH,WindSpeedGustMPH,Humidity,HourlyPrecipIn,Conditions,Clouds,dailyrainin,SoftwareType,DateUTC
2013-01-20 00:04:00,41.0,34.0,30.11,WNW,294,4.0,10.0,75,-99.99,,,-99.99,,2013-01-20 05:04:00,
2013-01-20 00:12:00,41.0,34.0,30.11,WNW,294,4.0,10.0,75,-99.99,,,-99.99,,2013-01-20 05:12:00,
2013-01-20 00:23:00,41.0,34.0,30.11,South,173,3.0,10.0,75,-99.99,,,-99.99,,2013-01-20 05:23:00,
2013-01-20 00:33:00,41.0,33.0,30.09,WSW,238,3.0,8.0,74,-99.99,,,-99.99,,2013-01-20 05:33:00,
2013-01-20 00:43:00,41.0,33.0,30.09,WSW,238,3.0,8.0,74,-99.99,,,-99.99,,2013-01-20 05:43:00,
2013-01-20 00:53:00,41.0,34.0,30.08,WNW,286,3.0,12.0,75,-99.99,,,-99.99,,2013-01-20 05:53:00,
2013-01-20 01:02:00,41.0,34.0,30.09,West,279,3.0,12.0,75,-99.99,,,-99.99,,2013-01-20 06:02:00,
2013-01-20 01:12:00,41.0,34.0,30.09,West,279,3.0,12.0,75,-99.99,,,-99.99,,2013-01-20 06:12:00,
2013-01-20 01:22:00,41.0,34.0,30.08,WSW,238,3.0,12.0,76,-99.99,,,-99.99,,2013-01-20 06:22:00,
2013-01-20 01:33:00,41.0,35.0,30.06,West,262,4.0,12.0,78,-99.99,,,-99.99,,2013-01-20 06:33:00,
2013-01-20 01:43:00,41.0,35.0,30.06,West,262,4.0,12.0,78,-99.99,,,-99.99,,2013-01-20 06:43:00,
2013-01-20 01:52:00,40.0,34.0,30.05,West,278,3.0,9.0,78,-99.99,,,-99.99,,2013-01-20 06:52:00,
2013-01-20 02:02:00,40.0,34.0,30.03,West,279,4.0,13.0,78,-99.99,,,-99.99,,2013-01-20 07:02:00,
2013-01-20 02:12:00,40.0,34.0,30.03,West,279,4.0,13.0,78,-99.99,,,-99.99,,2013-01-20 07:12:00,
2013-01-20 02:22:00,40.0,34.0,30.04,West,277,3.0,8.0,78,-99.99,,,-99.99,,2013-01-20 07:22:00,
2013-01-20 02:32:00,40.0,34.0,30.03,SW,235,3.0,10.0,79,-99.99,,,-99.99,,2013-01-20 07:32:00,
2013-01-20 02:42:00,40.0,34.0,30.03,SW,235,3.0,10.0,79,-99.99,,,-99.99,,2013-01-20 07:42:00,
2013-01-20 02:52:00,40.0,34.0,30.03,SW,235,3.0,7.0,80,-99.99,,,-99.99,,2013-01-20 07:52:00,
2013-01-20 03:02:00,40.0,34.0,30.02,West,269,3.0,7.0,79,-99.99,,,-99.99,,2013-01-20 08:02:00,
2013-01-20 03:12:00,40.0,34.0,30.02,West,269,3.0,7.0,79,-99.99,,,-99.99,,2013-01-20 08:12:00,
2013-01-20 03:22:00,40.0,34.0,30.01,WSW,255,4.0,9.0,79,-99.99,,,-99.99,,2013-01-20 08:22:00,
2013-01-20 03:32:00,40.0,34.0,30.00,West,262,4.0,10.0,79,-99.99,,,-99.99,,2013-01-20 08:32:00,
2013-01-20 03:42:00,40.0,34.0,30.00,West,262,4.0,10.0,79,-99.99,,,-99.99,,2013-01-20 08:42:00,
2013-01-20 03:53:00,40.0,34.0,30.01,West,264,3.0,9.0,79,-99.99,,,-99.99,,2013-01-20 08:53:00,
2013-01-20 04:02:00,39.0,33.0,30.00,West,259,3.0,6.0,79,-99.99,,,-99.99,,2013-01-20 09:02:00,
2013-01-20 04:12:00,39.0,33.0,30.00,West,259,3.0,6.0,79,-99.99,,,-99.99,,2013-01-20 09:12:00,
2013-01-20 04:22:00,39.0,33.0,29.98,West,276,4.0,9.0,79,-99.99,,,-99.99,,2013-01-20 09:22:00,
2013-01-20 04:33:00,39.0,33.0,29.98,West,277,2.0,7.0,80,-99.99,,,-99.99,,2013-01-20 09:33:00,
2013-01-20 04:42:00,39.0,33.0,29.98,West,277,2.0,7.0,80,-99.99,,,-99.99,,2013-01-20 09:42:00,
2013-01-20 04:53:00,39.0,33.0,29.98,WNW,293,3.0,8.0,80,-99.99,,,-99.99,,2013-01-20 09:53:00,
2013-01-20 05:02:00,39.0,33.0,29.97,West,278,3.0,7.0,79,-99.99,,,-99.99,,2013-01-20 10:02:00,
2013-01-20 05:12:00,39.0,33.0,29.97,West,278,3.0,7.0,79,-99.99,,,-99.99,,2013-01-20 10:12:00,
2013-01-20 05:23:00,39.0,33.0,29.96,WNW,283,3.0,7.0,79,-99.99,,,-99.99,,2013-01-20 10:23:00,
2013-01-20 05:32:00,38.0,32.0,29.94,West,276,2.0,8.0,80,-99.99,,,-99.99,,2013-01-20 10:32:00,
2013-01-20 05:42:00,38.0,32.0,29.94,West,276,2.0,8.0,80,-99.99,,,-99.99,,2013-01-20 10:42:00,
2013-01-20 05:53:00,38.0,33.0,29.93,WNW,284,2.0,6.0,81,-99.99,,,-99.99,,2013-01-20 10:53:00,
2013-01-20 06:02:00,38.0,33.0,29.93,West,281,3.0,7.0,81,-99.99,,,-99.99,,2013-01-20 11:02:00,
2013-01-20 06:12:00,38.0,33.0,29.93,West,281,3.0,7.0,81,-99.99,,,-99.99,,2013-01-20 11:12:00,
2013-01-20 06:22:00,38.0,33.0,29.92,West,279,2.0,7.0,81,-99.99,,,-99.99,,2013-01-20 11:22:00,
2013-01-20 06:33:00,38.0,33.0,29.91,WNW,293,2.0,6.0,81,-99.99,,,-99.99,,2013-01-20 11:33:00,
2013-01-20 06:43:00,38.0,33.0,29.91,WNW,293,2.0,6.0,81,-99.99,,,-99.99,,2013-01-20 11:43:00,
2013-01-20 06:54:00,38.0,33.0,29.92,WNW,283,2.0,8.0,82,-99.99,,,-99.99,,2013-01-20 11:54:00,
2013-01-20 07:03:00,38.0,33.0,29.91,West,281,2.0,9.0,81,-99.99,,,-99.99,,2013-01-20 12:03:00,
2013-01-20 07:12:00,38.0,33.0,29.91,West,281,2.0,9.0,81,-99.99,,,-99.99,,2013-01-20 12:12:00,
2013-01-20 07:23:00,38.0,32.0,29.91,West,270,3.0,11.0,80,-99.99,,,-99.99,,2013-01-20 12:23:00,
2013-01-20 07:33:00,38.0,32.0,29.91,West,267,3.0,8.0,78,-99.99,,,-99.99,,2013-01-20 12:33:00,
2013-01-20 07:43:00,38.0,32.0,29.91,West,267,3.0,8.0,78,-99.99,,,-99.99,,2013-01-20 12:43:00,
2013-01-20 07:53:00,39.0,32.0,29.90,West,263,3.0,9.0,77,-99.99,,,-99.99,,2013-01-20 12:53:00,
2013-01-20 08:03:00,39.0,32.0,29.89,West,262,3.0,8.0,77,-99.99,,,-99.99,,2013-01-20 13:03:00,
2013-01-20 08:12:00,39.0,32.0,29.89,West,262,3.0,8.0,77,-99.99,,,-99.99,,2013-01-20 13:12:00,
2013-01-20 08:23:00,39.0,32.0,29.89,WNW,286,4.0,9.0,76,-99.99,,,-99.99,,2013-01-20 13:23:00,
2013-01-20 08:33:00,39.0,32.0,29.89,NW,322,3.0,7.0,76,-99.99,,,-99.99,,2013-01-20 13:33:00,
2013-01-20 08:43:00,39.0,32.0,29.89,NW,322,3.0,7.0,76,-99.99,,,-99.99,,2013-01-20 13:43:00,
2013-01-20 08:53:00,40.0,33.0,29.90,WSW,245,3.0,7.0,75,-99.99,,,-99.99,,2013-01-20 13:53:00,
2013-01-20 09:02:00,40.0,32.0,29.90,West,271,4.0,7.0,73,-99.99,,,-99.99,,2013-01-20 14:02:00,
2013-01-20 09:12:00,40.0,32.0,29.90,West,271,4.0,7.0,73,-99.99,,,-99.99,,2013-01-20 14:12:00,
2013-01-20 09:23:00,42.0,33.0,29.89,WNW,284,3.0,10.0,70,-99.99,,,-99.99,,2013-01-20 14:23:00,
2013-01-20 09:33:00,42.0,32.0,29.89,NNW,330,4.0,8.0,68,-99.99,,,-99.99,,2013-01-20 14:33:00,
2013-01-20 09:43:00,42.0,32.0,29.89,NNW,330,4.0,8.0,68,-99.99,,,-99.99,,2013-01-20 14:43:00,
2013-01-20 09:53:00,43.0,32.0,29.90,WSW,256,4.0,11.0,65,-99.99,,,-99.99,,2013-01-20 14:53:00,
2013-01-20 10:03:00,44.0,32.0,29.91,WNW,284,6.0,16.0,63,-99.99,,,-99.99,,2013-01-20 15:03:00,
2013-01-20 10:12:00,44.0,32.0,29.91,WNW,284,6.0,16.0,63,-99.99,,,-99.99,,2013-01-20 15:12:00,
2013-01-20 10:23:00,44.0,32.0,29.91,NW,305,5.0,10.0,63,-99.99,,,-99.99,,2013-01-20 15:23:00,
2013-01-20 10:33:00,45.0,32.0,29.90,NW,309,5.0,14.0,61,-99.99,,,-99.99,,2013-01-20 15:33:00,
2013-01-20 10:43:00,45.0,32.0,29.90,NW,309,5.0,14.0,61,-99.99,,,-99.99,,2013-01-20 15:43:00,
2013-01-20 10:53:00,46.0,32.0,29.89,WNW,287,4.0,8.0,59,-99.99,,,-99.99,,2013-01-20 15:53:00,
2013-01-20 11:03:00,46.0,32.0,29.88,West,259,4.0,9.0,59,-99.99,,,-99.99,,2013-01-20 16:03:00,
2013-01-20 11:12:00,46.0,32.0,29.88,West,259,4.0,9.0,59,-99.99,,,-99.99,,2013-01-20 16:12:00,
2013-01-20 11:23:00,46.0,32.0,29.87,West,276,5.0,11.0,58,-99.99,,,-99.99,,2013-01-20 16:23:00,
2013-01-20 11:33:00,47.0,32.0,29.85,West,277,6.0,12.0,56,-99.99,,,-99.99,,2013-01-20 16:33:00,
2013-01-20 11:43:00,47.0,32.0,29.85,West,277,6.0,12.0,56,-99.99,,,-99.99,,2013-01-20 16:43:00,
2013-01-20 11:53:00,49.0,33.0,29.84,WNW,293,5.0,12.0,53,-99.99,,,-99.99,,2013-01-20 16:53:00,
2013-01-20 12:03:00,49.0,33.0,29.84,WNW,302,5.0,17.0,53,-99.99,,,-99.99,,2013-01-20 17:03:00,
2013-01-20 12:13:00,49.0,33.0,29.84,WNW,302,5.0,17.0,53,-99.99,,,-99.99,,2013-01-20 17:13:00,
2013-01-20 12:22:00,49.0,32.0,29.84,West,276,5.0,11.0,52,-99.99,,,-99.99,,2013-01-20 17:22:00,
2013-01-20 12:33:00,49.0,33.0,29.83,West,272,6.0,12.0,53,-99.99,,,-99.99,,2013-01-20 17:33:00,
2013-01-20 12:42:00,49.0,33.0,29.83,West,272,6.0,12.0,53,-99.99,,,-99.99,,2013-01-20 17:42:00,
2013-01-20 12:53:00,49.0,33.0,29.82,NW,305,5.0,15.0,53,-99.99,,,-99.99,,2013-01-20 17:53:00,
2013-01-20 13:03:00,49.0,33.0,29.82,WNW,285,5.0,12.0,53,-99.99,,,-99.99,,2013-01-20 18:03:00,
2013-01-20 13:13:00,49.0,33.0,29.82,WNW,285,5.0,12.0,53,-99.99,,,-99.99,,2013-01-20 18:13:00,
2013-01-20 13:23:00,50.0,33.0,29.81,WNW,288,4.0,9.0,52,-99.99,,,-99.99,,2013-01-20 18:23:00,
2013-01-20 13:33:00,50.0,33.0,29.81,NNW,340,5.0,16.0,51,-99.99,,,-99.99,,2013-01-20 18:33:00,
2013-01-20 13:43:00,50.0,33.0,29.81,NNW,340,5.0,16.0,51,-99.99,,,-99.99,,2013-01-20 18:43:00,
2013-01-20 13:53:00,50.0,33.0,29.81,West,278,4.0,11.0,51,-99.99,,,-99.99,,2013-01-20 18:53:00,
2013-01-20 14:03:00,50.0,31.0,29.81,WNW,291,4.0,7.0,47,-99.99,,,-99.99,,2013-01-20 19:03:00,
2013-01-20 14:12:00,50.0,31.0,29.81,WNW,291,4.0,7.0,47,-99.99,,,-99.99,,2013-01-20 19:12:00,
2013-01-20 14:23:00,50.0,31.0,29.82,NW,304,4.0,9.0,47,-99.99,,,-99.99,,2013-01-20 19:23:00,
2013-01-20 14:33:00,50.0,29.0,29.83,NNE,32,5.0,10.0,45,-99.99,,,-99.99,,2013-01-20 19:33:00,
2013-01-20 14:43:00,50.0,29.0,29.83,NNE,32,5.0,10.0,45,-99.99,,,-99.99,,2013-01-20 19:43:00,
2013-01-20 14:53:00,49.0,28.0,29.83,NW,307,6.0,14.0,44,-99.99,,,-99.99,,2013-01-20 19:53:00,
2013-01-20 15:03:00,49.0,29.0,29.84,WNW,297,4.0,10.0,45,-99.99,,,-99.99,,2013-01-20 20:03:00,
2013-01-20 15:12:00,49.0,29.0,29.84,WNW,297,4.0,10.0,45,-99.99,,,-99.99,,2013-01-20 20:12:00,
2013-01-20 15:23:00,49.0,27.0,29.84,WNW,291,5.0,11.0,43,-99.99,,,-99.99,,2013-01-20 20:23:00,
2013-01-20 15:33:00,50.0,28.0,29.85,NNW,328,4.0,8.0,42,-99.99,,,-99.99,,2013-01-20 20:33:00,
2013-01-20 15:42:00,50.0,28.0,29.85,NNW,328,4.0,8.0,42,-99.99,,,-99.99,,2013-01-20 20:42:00,
2013-01-20 15:54:00,50.0,28.0,29.86,WSW,240,3.0,11.0,42,-99.99,,,-99.99,,2013-01-20 20:54:00,
2013-01-20 16:04:00,50.0,28.0,29.86,NW,315,4.0,9.0,42,-99.99,,,-99.99,,2013-01-20 21:04:00,
2013-01-20 16:13:00,50.0,28.0,29.86,NW,315,4.0,9.0,42,-99.99,,,-99.99,,2013-01-20 21:13:00,
2013-01-20 16:23:00,50.0,26.0,29.87,NNW,334,3.0,9.0,39,-99.99,,,-99.99,,2013-01-20 21:23:00,
2013-01-20 16:33:00,49.0,25.0,29.88,NNW,328,4.0,9.0,39,-99.99,,,-99.99,,2013-01-20 21:33:00,
2013-01-20 16:43:00,49.0,25.0,29.88,NNW,328,4.0,9.0,39,-99.99,,,-99.99,,2013-01-20 21:43:00,
2013-01-20 16:53:00,48.0,23.0,29.89,North,355,4.0,6.0,37,-99.99,,,-99.99,,2013-01-20 21:53:00,
2013-01-20 17:03:00,48.0,23.0,29.90,WNW,293,4.0,10.0,37,-99.99,,,-99.99,,2013-01-20 22:03:00,
2013-01-20 17:13:00,48.0,23.0,29.90,WNW,293,4.0,10.0,37,-99.99,,,-99.99,,2013-01-20 22:13:00,
2013-01-20 17:23:00,47.0,22.0,29.91,North,349,4.0,9.0,37,-99.99,,,-99.99,,2013-01-20 22:23:00,
2013-01-20 17:33:00,46.0,21.0,29.93,North,357,5.0,9.0,36,-99.99,,,-99.99,,2013-01-20 22:33:00,
2013-01-20 17:43:00,46.0,21.0,29.93,North,357,5.0,9.0,36,-99.99,,,-99.99,,2013-01-20 22:43:00,
2013-01-20 17:52:00,45.0,20.0,29.94,WNW,293,4.0,8.0,36,-99.99,,,-99.99,,2013-01-20 22:52:00,
2013-01-20 18:03:00,44.0,18.0,29.95,West,277,4.0,8.0,35,-99.99,,,-99.99,,2013-01-20 23:03:00,
2013-01-20 18:13:00,44.0,18.0,29.95,West,277,4.0,8.0,35,-99.99,,,-99.99,,2013-01-20 23:13:00,
2013-01-20 18:23:00,43.0,17.0,29.97,North,349,5.0,8.0,35,-99.99,,,-99.99,,2013-01-20 23:23:00,
2013-01-20 18:33:00,42.0,16.0,29.98,West,277,4.0,7.0,35,-99.99,,,-99.99,,2013-01-20 23:33:00,
2013-01-20 18:43:00,42.0,16.0,29.98,West,277,4.0,7.0,35,-99.99,,,-99.99,,2013-01-20 23:43:00,
2013-01-20 18:53:00,41.0,17.0,30.00,NW,322,4.0,7.0,37,-99.99,,,-99.99,,2013-01-20 23:53:00,
2013-01-20 19:03:00,40.0,15.0,30.01,NW,311,5.0,9.0,35,-99.99,,,-99.99,,2013-01-21 00:03:00,
2013-01-20 19:13:00,40.0,15.0,30.01,NW,311,5.0,9.0,35,-99.99,,,-99.99,,2013-01-21 00:13:00,
2013-01-20 19:23:00,39.0,13.0,30.01,NNW,335,5.0,10.0,34,-99.99,,,-99.99,,2013-01-21 00:23:00,
2013-01-20 19:33:00,38.0,17.0,30.03,NW,309,2.0,7.0,42,-99.99,,,-99.99,,2013-01-21 00:33:00,
2013-01-20 19:43:00,38.0,17.0,30.03,NW,309,2.0,7.0,42,-99.99,,,-99.99,,2013-01-21 00:43:00,
2013-01-20 19:54:00,37.0,18.0,30.03,North,359,2.0,5.0,46,-99.99,,,-99.99,,2013-01-21 00:54:00,
2013-01-20 20:03:00,35.0,18.0,30.04,NE,44,2.0,6.0,49,-99.99,,,-99.99,,2013-01-21 01:03:00,
2013-01-20 20:13:00,35.0,18.0,30.04,NE,44,2.0,6.0,49,-99.99,,,-99.99,,2013-01-21 01:13:00,
2013-01-20 20:23:00,35.0,18.0,30.06,North,5,3.0,6.0,49,-99.99,,,-99.99,,2013-01-21 01:23:00,
2013-01-20 20:33:00,34.0,17.0,30.07,North,5,3.0,6.0,50,-99.99,,,-99.99,,2013-01-21 01:33:00,
2013-01-20 20:43:00,34.0,17.0,30.07,North,5,3.0,6.0,50,-99.99,,,-99.99,,2013-01-21 01:43:00,
2013-01-20 20:53:00,34.0,17.0,30.08,NNW,334,3.0,5.0,50,-99.99,,,-99.99,,2013-01-21 01:53:00,
2013-01-20 21:03:00,34.0,17.0,30.09,NNW,340,3.0,5.0,49,-99.99,,,-99.99,,2013-01-21 02:03:00,
2013-01-20 21:13:00,34.0,17.0,30.09,NNW,340,3.0,5.0,49,-99.99,,,-99.99,,2013-01-21 02:13:00,
2013-01-20 21:23:00,33.0,16.0,30.10,NW,308,4.0,8.0,49,-99.99,,,-99.99,,2013-01-21 02:23:00,
2013-01-20 21:33:00,33.0,16.0,30.10,NW,315,4.0,6.0,49,-99.99,,,-99.99,,2013-01-21 02:33:00,
2013-01-20 21:43:00,33.0,16.0,30.10,NW,315,4.0,6.0,49,-99.99,,,-99.99,,2013-01-21 02:43:00,
2013-01-20 21:53:00,32.0,15.0,30.11,NNE,13,3.0,6.0,50,-99.99,,,-99.99,,2013-01-21 02:53:00,
2013-01-20 22:03:00,32.0,15.0,30.11,NW,322,3.0,7.0,50,-99.99,,,-99.99,,2013-01-21 03:03:00,
2013-01-20 22:13:00,32.0,15.0,30.11,NW,322,3.0,7.0,50,-99.99,,,-99.99,,2013-01-21 03:13:00,
2013-01-20 22:23:00,31.0,15.0,30.11,NW,322,4.0,7.0,50,-99.99,,,-99.99,,2013-01-21 03:23:00,
2013-01-20 22:33:00,31.0,15.0,30.12,NNW,344,3.0,6.0,52,-99.99,,,-99.99,,2013-01-21 03:33:00,
2013-01-20 22:43:00,31.0,15.0,30.12,NNW,344,3.0,6.0,52,-99.99,,,-99.99,,2013-01-21 03:43:00,
2013-01-20 22:54:00,30.0,15.0,30.12,NW,323,2.0,6.0,52,-99.99,,,-99.99,,2013-01-21 03:54:00,
2013-01-20 23:03:00,30.0,14.0,30.13,NNW,339,5.0,8.0,51,-99.99,,,-99.99,,2013-01-21 04:03:00,
2013-01-20 23:13:00,30.0,14.0,30.13,NNW,339,5.0,8.0,51,-99.99,,,-99.99,,2013-01-21 04:13:00,
2013-01-20 23:23:00,29.0,14.0,30.14,NNW,332,4.0,7.0,52,-99.99,,,-99.99,,2013-01-21 04:23:00,
2013-01-20 23:33:00,29.0,13.0,30.13,East,84,4.0,8.0,51,-99.99,,,-99.99,,2013-01-21 04:33:00,
2013-01-20 23:43:00,29.0,13.0,30.13,East,84,4.0,8.0,51,-99.99,,,-99.99,,2013-01-21 04:43:00,
2013-01-20 23:53:00,29.0,13.0,30.14,West,276,5.0,10.0,50,-99.99,,,-99.99,,2013-01-21 04:53:00,